Orbital Elements at Epoch 2459000.5 (2020-May-31.0) TDB
Reference: JPL 37 (heliocentric ecliptic J2000)
Element | Value | Uncertainty (1-sigma) | Units |
e | .07620367763770797 | 4.0711e-08 | |
a | 2.875804199758912 | 9.7679e-09 | au |
q | 2.656657343571317 | 1.1455e-07 | au |
i | 1.261119117372356 | 3.7815e-06 | deg |
node | 220.7282486972753 | 0.00015826 | deg |
peri | 127.9747303438683 | 0.00015971 | deg |
M | 79.96587062453052 | 2.1953e-05 | deg |
tp | 2458604.824129510362 (2019-May-01.32412951) | 0.00010836 | TDB |
period | 1781.301350986271 4.88 | 9.0755e-06 2.485e-08 | d yr |
n | .2020994369092434 | 1.0297e-09 | deg/d |
Q | 3.094951055946507 | 1.0512e-08 | au |
|
| | Orbit Determination Parameters
Additional Information
|